Terug naar catalogus

COSMOS 1359

ActiefNavigatieLEO
NORAD 13162·PAYLOAD·🇷🇺 Russia

Gelanceerd May 6, 1982 vanaf Plesetsk Cosmodrome

Loading…

Volgende Passages (komende 24 uur)

TLE

VersSource: Space-Track

Epoch: Sep 14, 2026, 14:02 UTC

1 13162U 82040C   26257.58480003 -.00000008  00000-0  54021-4 0  9992
2 13162  74.0093 112.6883 0031077 193.4831 194.7563 12.52043215 28778

Volg COSMOS 1359 in realtime met AllMySat

Download on the App Store